Weather History for KFOT - April, 2014

Change the Weather History Date:

Thursday, April 24, 2014

  Actual Average (KEKA) Record (KEKA)
Temperature  
Mean Temperature 54 °F 52 °F  
Max Temperature 59 °F 58 °F 70 °F (2013)
Min Temperature 48 °F 45 °F 36 °F (2008)
Degree Days  
Heating Degree Days 12 13  
Month to date heating degree days 346  
Since 1 July heating degree days 3744  
Cooling Degree Days 0 0  
Month to date cooling degree days 0  
Year to date cooling degree days 0  
Growing Degree Days 4 (Base 50)    
Moisture  
Dew Point 51 °F    
Average Humidity 91    
Maximum Humidity 100    
Minimum Humidity 77    
Precipitation  
Precipitation 0.13 in 0.09 in 0.96 in (1983)
Month to date precipitation 2.80  
Year to date precipitation 20.23  
Snow  
Snow 0.00 in 0.00 in - ()
Month to date snowfall 0.0  
Since 1 July snowfall 0.2  
Snow Depth -    
Sea Level Pressure  
Sea Level Pressure 30.03 in    
Wind  
Wind Speed 8 mph (SE)    
Max Wind Speed 15 mph    
Max Gust Speed 20 mph    
Visibility 8 miles    
Events      
T = Trace of Precipitation, MM = Missing Value Source: NWS Daily Summary

Daily Weather History Graph

Daily Weather History Graph

Search for Another Location

Airport or City:

Trip Planner

Search our weather history database for the weather conditions in past years. The results will help you decide how hot, cold, wet, or windy it might be!

Date:

Astronomy

Apr. 24, 2014 Rise Set
Actual Time 6:24 AM PDT 8:05 PM PDT
Civil Twilight 5:55 AM PDT 8:34 PM PDT
Nautical Twilight 5:20 AM PDT 9:09 PM PDT
Astronomical Twilight 4:43 AM PDT 9:47 PM PDT
Moon 3:40 AM PDT (4/24) 3:26 PM PDT (4/24)
Length of Visible Light 14h 38m
Length of Day
13h 40m
Waning Crescent, 23% of the Moon is Illuminated
Apr 24
Waning Crescent
Apr 28
New
May 6
First Quarter
May 14
Full
May 21
Last Quarter

Hourly Weather History & Observations

Time (PDT) Temp. Dew Point Humidity Pressure Visibility Wind Dir Wind Speed Gust Speed Precip Events Conditions
12:15 AM 53.6 °F 50.0 °F 88% 30.04 in 10.0 mi ESE 15.0 mph 19.6 mph N/A   Overcast
12:35 AM 53.6 °F 50.0 °F 88% 30.07 in 10.0 mi SSW 4.6 mph - N/A   Mostly Cloudy
12:55 AM 51.8 °F 50.0 °F 94% 30.08 in 10.0 mi Calm Calm - N/A   Overcast
1:15 AM 51.8 °F 50.0 °F 94% 30.09 in 6.0 mi East 3.5 mph - N/A   Overcast
1:35 AM 51.8 °F 50.0 °F 94% 30.08 in 10.0 mi ESE 6.9 mph - N/A   Overcast
1:55 AM 51.8 °F 50.0 °F 94% 30.07 in 10.0 mi SE 5.8 mph - N/A   Overcast
2:15 AM 51.8 °F 50.0 °F 94% 30.06 in 10.0 mi ESE 11.5 mph - N/A   Mostly Cloudy
2:35 AM 51.8 °F 50.0 °F 94% 30.04 in 10.0 mi ESE 11.5 mph - N/A   Mostly Cloudy
2:55 AM 51.8 °F 50.0 °F 94% 30.04 in 10.0 mi SE 6.9 mph - N/A   Overcast
3:15 AM 51.8 °F 50.0 °F 94% 30.04 in 10.0 mi ESE 9.2 mph - N/A   Overcast
3:35 AM 51.8 °F 50.0 °F 94% 30.04 in 10.0 mi SE 5.8 mph - N/A   Overcast
3:55 AM 51.8 °F 50.0 °F 94% 30.03 in 10.0 mi ESE 12.7 mph - N/A   Overcast
4:15 AM 53.6 °F 50.0 °F 88% 30.03 in 10.0 mi ESE 10.4 mph - N/A   Overcast
4:35 AM 51.8 °F 50.0 °F 94% 30.04 in 10.0 mi ESE 8.1 mph - N/A   Overcast
4:55 AM 53.6 °F 50.0 °F 88% 30.03 in 10.0 mi ESE 11.5 mph - N/A   Overcast
5:15 AM 53.6 °F 50.0 °F 88% 30.04 in 5.0 mi SE 6.9 mph - 0.02 in   Overcast
5:35 AM 51.8 °F 50.0 °F 94% 30.02 in 7.0 mi ESE 11.5 mph - 0.02 in   Overcast
5:55 AM 51.8 °F 50.0 °F 94% 30.02 in 10.0 mi ESE 8.1 mph - 0.02 in   Overcast
6:15 AM 51.8 °F 50.0 °F 94% 30.02 in 10.0 mi ESE 11.5 mph - N/A   Overcast
6:35 AM 51.8 °F 50.0 °F 94% 30.04 in 8.0 mi SE 9.2 mph - 0.01 in   Overcast
6:55 AM 51.8 °F 50.0 °F 94% 30.03 in 9.0 mi ESE 12.7 mph - 0.02 in   Mostly Cloudy
7:15 AM 51.8 °F 50.0 °F 94% 30.03 in 10.0 mi ESE 9.2 mph - N/A   Mostly Cloudy
7:35 AM 51.8 °F 50.0 °F 94% 30.03 in 7.0 mi ESE 12.7 mph - N/A   Overcast
7:55 AM 51.8 °F 50.0 °F 94% 30.03 in 3.0 mi SE 9.2 mph - 0.02 in   Mostly Cloudy
8:15 AM 53.6 °F 50.0 °F 88% 30.04 in 7.0 mi ESE 9.2 mph - N/A   Mostly Cloudy
8:35 AM 53.6 °F 50.0 °F 88% 30.04 in 6.0 mi ESE 12.7 mph - 0.01 in   Mostly Cloudy
8:55 AM 53.6 °F 50.0 °F 88% 30.04 in 4.0 mi ESE 11.5 mph - 0.01 in   Mostly Cloudy
9:15 AM 53.6 °F 51.8 °F 94% 30.04 in 3.0 mi ESE 12.7 mph - 0.01 in   Mostly Cloudy
9:35 AM 53.6 °F 50.0 °F 88% 30.04 in 5.0 mi ESE 12.7 mph - 0.01 in   Scattered Clouds
9:55 AM 53.6 °F 51.8 °F 94% 30.05 in 1.5 mi ESE 10.4 mph - 0.04 in   Scattered Clouds
10:15 AM 53.6 °F 51.8 °F 94% 30.06 in 4.0 mi ESE 9.2 mph - 0.01 in   Scattered Clouds
10:35 AM 53.6 °F 51.8 °F 94% 30.06 in 7.0 mi East 9.2 mph - 0.01 in   Mostly Cloudy
10:55 AM 55.4 °F 53.6 °F 94% 30.05 in 10.0 mi East 11.5 mph - 0.01 in   Mostly Cloudy
11:15 AM 55.4 °F 53.6 °F 94% 30.06 in 10.0 mi East 9.2 mph - N/A   Mostly Cloudy
11:35 AM 55.4 °F 53.6 °F 94% 30.05 in 10.0 mi ESE 10.4 mph - N/A   Overcast
11:55 AM 57.2 °F 53.6 °F 88% 30.05 in 10.0 mi ESE 9.2 mph - N/A   Overcast
12:15 PM 57.2 °F 53.6 °F 88% 30.06 in 10.0 mi ESE 8.1 mph - N/A   Overcast
12:35 PM 57.2 °F 53.6 °F 88% 30.06 in 10.0 mi ESE 6.9 mph - N/A   Overcast
12:55 PM 57.2 °F 53.6 °F 88% 30.06 in 10.0 mi ESE 6.9 mph - N/A   Overcast
1:15 PM 59.0 °F 53.6 °F 82% 30.06 in 10.0 mi Calm Calm - N/A   Mostly Cloudy
1:35 PM 59.0 °F 53.6 °F 82% 30.04 in 10.0 mi Calm Calm - N/A   Scattered Clouds
1:55 PM 59.0 °F 51.8 °F 77% 30.04 in 10.0 mi Calm Calm - N/A   Scattered Clouds
2:15 PM 57.2 °F 53.6 °F 88% 30.04 in 10.0 mi WNW 6.9 mph - N/A   Mostly Cloudy
2:35 PM 59.0 °F 53.6 °F 82% 30.04 in 10.0 mi West 9.2 mph - N/A   Overcast
2:55 PM 59.0 °F 51.8 °F 77% 30.04 in 10.0 mi West 9.2 mph - N/A   Overcast
3:15 PM 57.2 °F 53.6 °F 88% 30.05 in 10.0 mi NW 12.7 mph 18.4 mph N/A   Overcast
3:35 PM 55.4 °F 53.6 °F 94% 30.05 in 10.0 mi NW 11.5 mph 19.6 mph N/A   Mostly Cloudy
3:55 PM 53.6 °F 51.8 °F 94% 30.05 in 10.0 mi NW 9.2 mph - N/A   Overcast
4:15 PM 55.4 °F 50.0 °F 82% 30.04 in 10.0 mi NW 11.5 mph - N/A   Overcast
4:35 PM 55.4 °F 50.0 °F 82% 30.04 in 10.0 mi NW 10.4 mph - N/A   Overcast
4:55 PM 55.4 °F 50.0 °F 82% 30.03 in 10.0 mi NW 9.2 mph - N/A   Mostly Cloudy
5:15 PM 55.4 °F 48.2 °F 77% 30.02 in 10.0 mi WNW 6.9 mph - N/A   Mostly Cloudy
5:35 PM 55.4 °F 50.0 °F 82% 30.02 in 10.0 mi WNW 6.9 mph - N/A   Scattered Clouds
5:55 PM 55.4 °F 50.0 °F 82% 30.00 in 10.0 mi WSW 3.5 mph - N/A   Scattered Clouds
6:15 PM 53.6 °F 50.0 °F 88% 30.00 in 10.0 mi West 6.9 mph - N/A   Scattered Clouds
6:35 PM 53.6 °F 48.2 °F 82% 30.00 in 10.0 mi West 4.6 mph - N/A   Mostly Cloudy
6:55 PM 53.6 °F 48.2 °F 82% 29.99 in 10.0 mi WNW 6.9 mph - N/A   Mostly Cloudy
7:15 PM 53.6 °F 50.0 °F 88% 29.99 in 10.0 mi WNW 6.9 mph - N/A   Overcast
7:35 PM 53.6 °F 50.0 °F 88% 30.01 in 8.0 mi WNW 9.2 mph - N/A   Overcast
7:55 PM 50.0 °F 50.0 °F 100% 30.00 in 4.0 mi NW 4.6 mph - N/A   Mostly Cloudy
8:35 PM 50.0 °F 48.2 °F 94% 29.99 in 8.0 mi NW 5.8 mph - N/A   Overcast
8:55 PM 50.0 °F 48.2 °F 94% 29.99 in 8.0 mi WNW 4.6 mph - N/A   Overcast
9:15 PM 50.0 °F 48.2 °F 94% 29.99 in 8.0 mi Calm Calm - N/A   Overcast
9:35 PM 50.0 °F 50.0 °F 100% 29.98 in 7.0 mi Calm Calm - N/A   Overcast
9:55 PM 50.0 °F 50.0 °F 100% 29.99 in 7.0 mi Calm Calm - N/A   Overcast
10:15 PM 50.0 °F 48.2 °F 94% 29.99 in 7.0 mi West 3.5 mph - N/A   Overcast
10:35 PM 50.0 °F 48.2 °F 94% 29.99 in 8.0 mi WNW 3.5 mph - N/A   Overcast
10:55 PM 50.0 °F 50.0 °F 100% 29.98 in 1.5 mi NW 5.8 mph - N/A   Overcast
11:15 PM 48.2 °F 48.2 °F 100% 29.98 in 8.0 mi West 3.5 mph - N/A   Overcast
11:35 PM 48.2 °F 48.2 °F 100% 29.98 in 9.0 mi SW 3.5 mph - 0.01 in   Overcast
11:55 PM 48.2 °F 48.2 °F 100% 29.97 in 10.0 mi Calm Calm - 0.01 in   Overcast